[[{"header":{"parameterUnit":"m.s-1","parameterCategory":2,"la1":30.2991,"la2":30.254,"lo1":-89.0895,"lo2":-89.0444,"dy":0.0017,"dx":0.0017,"nx":28,"ny":28,"refTime":"2023-08-17T09:00:00:Z","depth":"0","parameterNumber":2,"parameterNumberName":"U-component_of_CURRENTS"},"data":[0,0,0,0,0,0,0,0,0,0,0,0,0,0,0,0,0,0,0,0,0,0,0,0,0,0,0,0,0,0,0,0,0,0,0,0,0,0,0,0,0,0,0,0,0,0,0,0,0,0,0,0,0,0,0,0,0,0,-0.2772,-0.2772,0,-0.2802,-0.2803,-0.2803,-0.2847,-0.2848,-0.2849,-0.2849,-0.2867,-0.2866,-0.2866,0,0,0,0,0,0,0,0,0,0,0,0,0,-0.2792,-0.2791,-0.2772,-0.2772,-0.2773,-0.2802,-0.2803,-0.2803,-0.2847,-0.2848,-0.2849,-0.285,-0.2867,-0.2866,-0.2866,0,0,0,0,0,0,0,0,0,0,0,0,0,-0.2799,-0.2791,-0.2772,-0.2798,-0.2801,-0.2802,-0.2803,-0.2803,-0.2847,-0.2848,-0.2849,-0.285,-0.2867,-0.2866,-0.2866,-0.2841,0,0,-0.2865,-0.2865,0,0,0,0,0,0,0,0,-0.2798,-0.2798,-0.2794,-0.2796,-0.2799,-0.2822,-0.2816,-0.2815,-0.2847,-0.283,-0.2849,-0.2851,-0.2849,-0.2851,-0.2854,-0.2842,-0.2843,-0.2865,-0.2865,-0.2865,-0.2865,0,0,0,0,0,0,0,-0.2798,-0.2797,-0.2784,-0.2794,-0.2797,-0.2822,-0.2824,-0.2816,-0.2833,-0.2831,-0.2834,-0.2837,-0.2851,-0.2855,-0.2855,-0.2843,-0.2865,-0.2865,-0.2865,-0.2864,-0.2876,-0.2877,0,0,0,0,0,0,-0.279,-0.2796,-0.2783,-0.2785,-0.2801,-0.282,-0.2822,-0.2814,-0.2833,-0.2837,-0.2836,-0.2839,-0.2855,-0.2855,-0.2856,-0.2864,-0.2865,-0.2864,-0.2864,-0.2876,-0.2877,-0.2877,0,0,0,0,0,0,-0.279,-0.2788,-0.2782,-0.2792,-0.2793,-0.2818,-0.2808,-0.2814,-0.2821,-0.2837,-0.2841,-0.2838,-0.2856,-0.2856,-0.2862,-0.2864,-0.2864,-0.2864,-0.2875,-0.2876,-0.2877,-0.2858,0,0,0,0,0,0,-0.279,-0.2787,-0.2777,-0.2791,-0.2792,-0.2791,-0.2807,-0.2813,-0.282,-0.2824,-0.284,-0.2843,-0.2856,-0.2863,-0.2862,-0.2864,-0.2864,-0.2875,-0.2876,-0.2877,-0.2858,-0.2858,-0.2858,0,0,0,0,0,-0.2791,-0.2776,-0.2776,-0.2774,-0.2776,-0.2791,-0.2794,-0.2816,-0.2819,-0.2825,-0.2838,-0.2842,-0.2869,-0.2862,-0.2861,-0.2863,-0.2874,-0.2875,-0.2877,-0.2858,-0.2858,-0.2858,0,0,0,0,0,0,-0.2773,-0.2779,-0.2779,-0.2765,-0.2779,-0.2798,-0.2799,-0.281,-0.2823,-0.2824,-0.2839,-0.2842,-0.2855,-0.2859,-0.2851,-0.2873,-0.2876,-0.2877,-0.2862,-0.2862,-0.2862,-0.284,-0.2863,0,0,0,0,0,-0.2762,-0.2751,-0.2768,-0.2751,-0.2758,-0.2774,-0.278,-0.2796,-0.281,-0.2817,-0.2827,-0.284,-0.2857,-0.2859,-0.2875,-0.2869,-0.2869,-0.2875,-0.2875,-0.2875,-0.2859,-0.2896,-0.2898,-0.2881,-0.2881,-0.2881,0,0,-0.2744,-0.2748,-0.2738,-0.2746,-0.2754,-0.2756,-0.2781,-0.2789,-0.2788,-0.2813,-0.2811,-0.2839,-0.2858,-0.287,-0.2875,-0.2872,-0.2873,-0.2877,-0.2876,-0.286,-0.2898,-0.2899,-0.2901,-0.2882,-0.2882,-0.2882,0,0,-0.2707,-0.2711,-0.2693,-0.2707,-0.2723,-0.274,-0.274,-0.2762,-0.2774,-0.2774,-0.2805,-0.2836,-0.2836,-0.2868,-0.2879,-0.2884,-0.2878,-0.2888,-0.286,-0.2897,-0.2898,-0.29,-0.2868,-0.2867,-0.2882,-0.2882,-0.2882,0,-0.2687,-0.2664,-0.2691,-0.2685,-0.269,-0.2728,-0.2718,-0.2733,-0.2754,-0.2764,-0.2771,-0.2814,-0.2837,-0.2864,-0.287,-0.2883,-0.2876,-0.2856,-0.2896,-0.2898,-0.2899,-0.2867,-0.2866,-0.2881,-0.2881,-0.2881,-0.2881,0,-0.2639,-0.2627,-0.2621,-0.2622,-0.2637,-0.2637,-0.2668,-0.2686,-0.2701,-0.2719,-0.2751,-0.2791,-0.2816,-0.2838,-0.2847,-0.2876,-0.2855,-0.2897,-0.2891,-0.2899,-0.2865,-0.2864,-0.288,-0.288,-0.288,-0.288,0,0,-0.2581,-0.2584,-0.2581,-0.2583,-0.2607,-0.2621,-0.2625,-0.265,-0.2662,-0.269,-0.2695,-0.2747,-0.2776,-0.279,-0.2827,-0.2856,-0.2858,-0.2867,-0.2869,-0.2825,-0.2881,-0.2782,-0.2771,-0.2908,-0.2908,-0.2909,-0.2839,0,-0.2534,-0.2512,-0.2524,-0.2512,-0.2514,-0.2558,-0.2563,-0.2598,-0.2626,-0.2645,-0.2698,-0.272,-0.2754,-0.277,-0.2804,-0.2855,-0.2859,-0.2869,-0.2888,-0.2887,-0.2792,-0.2769,-0.272,-0.2647,-0.2838,-0.2838,-0.2838,0,-0.2484,-0.2483,-0.2456,-0.248,-0.2484,-0.2484,-0.2527,-0.2533,-0.2578,-0.2598,-0.2632,-0.2669,-0.2705,-0.2741,-0.2799,-0.2799,-0.2821,-0.2857,-0.2857,-0.2769,-0.2787,-0.2679,-0.2638,-0.2523,-0.2836,-0.2837,-0.2837,0,-0.2448,-0.2441,-0.2422,-0.2426,-0.2453,-0.2457,-0.2472,-0.2519,-0.2539,-0.2562,-0.2582,-0.2626,-0.2648,-0.2699,-0.2738,-0.2776,-0.2781,-0.2855,-0.2777,-0.2769,-0.273,-0.2716,-0.2574,-0.2885,-0.2885,-0.2885,-0.2886,0,-0.24,-0.2384,-0.2406,-0.2398,-0.2391,-0.2426,-0.2427,-0.2452,-0.2492,-0.2519,-0.2549,-0.2579,-0.2645,-0.2658,-0.2701,-0.2694,-0.2747,-0.2743,-0.2748,-0.2716,-0.2703,-0.2605,-0.2568,-0.2883,-0.2883,-0.2884,-0.2884,0,-0.2336,-0.2352,-0.2335,-0.2358,-0.2368,-0.2358,-0.2392,-0.2408,-0.2447,-0.2478,-0.2483,-0.2536,-0.2549,-0.257,-0.2629,-0.2635,-0.2581,-0.2636,-0.2542,-0.2537,-0.2378,-0.2343,-0.2254,-0.2195,-0.2556,-0.2553,-0.255,0,-0.2278,-0.2265,-0.2289,-0.2291,-0.2289,-0.2295,-0.2309,-0.2363,-0.2393,-0.2467,-0.2483,-0.2494,-0.2529,-0.2506,-0.2496,-0.2482,-0.2454,-0.2396,-0.248,-0.2318,-0.2285,-0.232,-0.2281,-0.2411,-0.2408,-0.2405,-0.2403,0,-0.2167,-0.2187,-0.2189,-0.2191,-0.2204,-0.2222,-0.2253,-0.2288,-0.2367,-0.2426,-0.2503,-0.254,-0.2505,-0.2493,-0.24,-0.2366,-0.2289,-0.234,-0.2233,-0.2182,-0.2155,-0.2117,-0.2458,-0.2379,-0.2382,-0.2383,-0.2385,-0.2386,-0.207,-0.2055,-0.2074,-0.2065,-0.2102,-0.2143,-0.2123,-0.2233,-0.2301,-0.2397,-0.2481,-0.2518,-0.2486,-0.2386,-0.2308,-0.2063,-0.2148,-0.2015,-0.1988,-0.204,-0.1967,-0.2195,-0.2091,-0.2092,-0.2093,-0.2093,-0.2094,0,-0.1904,-0.1929,-0.194,-0.1954,-0.1963,-0.2011,-0.2071,-0.2076,-0.2159,-0.2322,-0.241,-0.2404,-0.2328,-0.2209,-0.1985,-0.1785,-0.1786,-0.1624,-0.1675,-0.1658,-0.1905,-0.188,-0.1651,-0.1651,-0.1651,-0.1651,-0.1651,-0.1651,-0.1817,-0.1787,-0.181,-0.1793,-0.1814,-0.1778,-0.1785,-0.1864,-0.1951,-0.2066,-0.2114,-0.2121,-0.1935,-0.1855,-0.1557,-0.1453,-0.1359,-0.1308,-0.1273,-0.1436,-0.1472,-0.1507,-0.1472,-0.1161,-0.1161,-0.1063,-0.1061,-0.106]},{"header":{"parameterUnit":"m.s-1","parameterCategory":2,"la1":30.2991,"la2":30.254,"lo1":-89.0895,"lo2":-89.0444,"dy":0.0017,"dx":0.0017,"nx":28,"ny":28,"refTime":"2023-08-17T09:00:00:Z","depth":"0","parameterNumber":3,"parameterNumberName":"V-component_of_CURRENTS"},"data":[0,0,0,0,0,0,0,0,0,0,0,0,0,0,0,0,0,0,0,0,0,0,0,0,0,0,0,0,0,0,0,0,0,0,0,0,0,0,0,0,0,0,0,0,0,0,0,0,0,0,0,0,0,0,0,0,0,0,-0.0131,-0.013,0,-0.0042,-0.0041,-0.004,-0.0039,-0.004,-0.0042,-0.0043,0.0078,0.0082,0.0087,0,0,0,0,0,0,0,0,0,0,0,0,0,-0.02,-0.0199,-0.0131,-0.013,-0.0129,-0.0043,-0.0041,-0.004,-0.0038,-0.004,-0.0042,-0.0044,0.0076,0.0082,0.0087,0,0,0,0,0,0,0,0,0,0,0,0,0,-0.0144,-0.0199,-0.0131,-0.0121,-0.0119,-0.0043,-0.0041,-0.0039,-0.0038,-0.004,-0.0042,-0.0044,0.0075,0.0081,0.0088,0.0173,0,0,0.0109,0.0112,0,0,0,0,0,0,0,0,-0.0147,-0.0141,-0.0123,-0.0122,-0.012,-0.0057,-0.0021,0.0032,-0.0038,-0.0065,-0.0043,-0.0045,0.0035,0.0045,0.0071,0.0178,0.0184,0.0109,0.0113,0.0116,0.0118,0,0,0,0,0,0,0,-0.0151,-0.0144,-0.0093,-0.0122,-0.012,-0.0087,-0.0082,-0.0011,-0.0001,-0.0063,-0.0064,-0.0058,0.0037,0.0064,0.0074,0.0185,0.0109,0.0115,0.0119,0.0122,0.0354,0.0356,0,0,0,0,0,0,-0.0171,-0.0148,-0.0095,-0.009,-0.0143,-0.0085,-0.0079,-0.0072,-0.0002,0.0005,-0.0057,-0.0059,0.0054,0.0066,0.0078,0.0158,0.0116,0.0123,0.0127,0.0352,0.0354,0.0357,0,0,0,0,0,0,-0.0173,-0.0167,-0.0099,-0.012,-0.011,-0.0082,-0.0074,-0.0069,-0.0047,0.0001,0.0009,-0.0041,0.0052,0.0068,0.0136,0.0163,0.0126,0.0132,0.0349,0.0353,0.0356,0.0334,0,0,0,0,0,0,-0.0175,-0.0168,-0.0156,-0.0121,-0.0109,-0.0051,-0.0072,-0.0066,-0.0042,-0.0044,0.0019,0.0027,0.0052,0.0126,0.0143,0.0172,0.0137,0.0347,0.0351,0.0355,0.0332,0.0336,0.034,0,0,0,0,0,-0.0178,-0.0143,-0.0156,-0.0149,-0.0098,-0.005,-0.0039,-0.0025,-0.0039,-0.0015,0.0016,0.0025,0.0162,0.0133,0.0153,0.0184,0.0345,0.035,0.0354,0.0331,0.0335,0.0339,0,0,0,0,0,0,-0.0138,-0.0139,-0.0152,-0.0113,-0.009,-0.0051,-0.0023,-0.0019,0.0028,0.0023,0.0056,0.007,0.0137,0.0175,0.0142,0.0265,0.0255,0.0264,0.0231,0.0236,0.0239,0.0198,0.0143,0,0,0,0,0,-0.0133,-0.0127,-0.0111,-0.0079,-0.0072,-0.005,-0.0027,-0.0019,0.0018,0.0035,0.0074,0.0124,0.0179,0.0213,0.0269,0.0347,0.0342,0.0382,0.0385,0.0388,0.037,0.0404,0.0408,0.0372,0.0372,0.0372,0,0,-0.0109,-0.0108,-0.0102,-0.0074,-0.0058,-0.0041,-0.004,-0.0003,0.0012,0.0046,0.0093,0.0141,0.0202,0.0273,0.0308,0.0304,0.0393,0.0394,0.0395,0.0376,0.0409,0.0412,0.0414,0.0375,0.0375,0.0374,0,0,-0.0071,-0.0061,-0.0057,-0.0043,-0.0027,-0.0012,-0.0007,0.003,0.0044,0.0102,0.0121,0.0181,0.0274,0.0315,0.0348,0.0415,0.0407,0.0442,0.0432,0.0466,0.0467,0.0469,0.0441,0.044,0.0447,0.0447,0.0447,0,-0.0045,-0.0048,-0.0038,-0.0033,-0.0031,-0.0009,-0.0004,0.0033,0.0089,0.0101,0.0112,0.0235,0.029,0.036,0.0377,0.0421,0.0412,0.0403,0.0465,0.0467,0.0469,0.044,0.0439,0.0447,0.0447,0.0447,0.0447,0,-0.0024,-0.0023,-0.0011,-0.0023,-0.0004,0.0014,0.0036,0.0064,0.0081,0.011,0.0181,0.0263,0.0323,0.0368,0.0391,0.0446,0.0422,0.0457,0.044,0.047,0.0439,0.0438,0.0446,0.0446,0.0446,0.0446,0,0,0.0011,-0.0004,-0.0004,-0.0032,-0.0009,-0.0,0.0031,0.0053,0.0053,0.0138,0.0156,0.0272,0.0303,0.0343,0.0398,0.0438,0.0446,0.0446,0.0448,0.039,0.0465,0.0378,0.0369,0.0486,0.0487,0.0487,0.0425,0,0.001,-0.0011,-0.0006,-0.002,-0.0037,-0.0019,-0.0008,0.0023,0.0062,0.0099,0.0191,0.0243,0.0299,0.0327,0.0379,0.0439,0.0449,0.0456,0.0467,0.0466,0.0364,0.0368,0.0379,0.0319,0.0425,0.0425,0.0425,0,0.0013,-0.0015,-0.0041,-0.008,-0.0086,-0.008,-0.0089,-0.0069,-0.0005,0.0023,0.0101,0.017,0.0258,0.0298,0.0389,0.0386,0.0407,0.0447,0.0447,0.0369,0.038,0.0316,0.0314,0.0512,0.0424,0.0424,0.0424,0,-0.0015,-0.004,-0.0081,-0.0087,-0.011,-0.0121,-0.0126,-0.009,-0.0093,-0.0018,-0.0003,0.0112,0.0165,0.0241,0.0326,0.0353,0.0396,0.0451,0.0379,0.0371,0.0383,0.0374,0.0551,0.0477,0.0477,0.0477,0.0477,0,-0.0029,-0.0058,-0.0103,-0.0124,-0.0182,-0.0173,-0.0205,-0.0192,-0.0165,-0.017,-0.0046,-0.0019,0.0153,0.0212,0.0287,0.0312,0.0361,0.0352,0.0354,0.0373,0.0365,0.0539,0.0653,0.0475,0.0475,0.0476,0.0476,0,-0.0039,-0.0067,-0.0122,-0.0174,-0.0196,-0.0233,-0.0273,-0.0299,-0.0262,-0.026,-0.024,-0.0121,-0.0046,0.008,0.0192,0.0236,0.0366,0.0273,0.0245,0.0245,0.036,0.047,0.0536,0.0622,0.0188,0.0185,0.0183,0,-0.0045,-0.0077,-0.0165,-0.0216,-0.0239,-0.0295,-0.0346,-0.0348,-0.0372,-0.0329,-0.034,-0.0254,-0.0212,-0.0098,0.0011,0.0081,0.0275,0.012,0.0186,0.0345,0.0473,0.0522,0.0596,0.0189,0.0187,0.0186,0.0185,0,-0.0062,-0.0095,-0.0149,-0.0262,-0.0333,-0.0416,-0.0476,-0.0515,-0.0518,-0.0524,-0.052,-0.0478,-0.0356,-0.0252,-0.0157,-0.0078,0.0261,0.0084,0.0303,0.0513,0.053,0.062,0.0214,0.0171,0.0173,0.0174,0.0174,0.0175,-0.0078,-0.0123,-0.021,-0.0315,-0.0416,-0.0533,-0.0603,-0.0671,-0.0741,-0.0785,-0.0703,-0.0639,-0.0428,-0.0283,-0.0194,0.0107,0.0125,0.0238,0.0357,0.0388,0.0487,-0.0006,-0.0075,-0.0075,-0.0075,-0.0075,-0.0075,0,-0.0105,-0.0163,-0.0262,-0.041,-0.0545,-0.0574,-0.0701,-0.0775,-0.0887,-0.0915,-0.0936,-0.0609,-0.0434,-0.0134,0.0223,0.0392,0.048,0.055,0.0715,0.078,0.0398,0.0421,0.0394,0.0394,0.0394,0.0394,0.0393,0.0393,-0.0124,-0.0213,-0.0272,-0.0499,-0.0607,-0.0775,-0.0851,-0.0953,-0.0996,-0.0954,-0.0768,-0.0572,0.0088,0.0502,0.0879,0.0896,0.1139,0.1057,0.1202,0.106,0.1044,0.1029,0.1081,0.1193,0.1194,0.1562,0.1566,0.1569]}],[{"header":{"parameterUnit":"m.s-1","parameterCategory":2,"la1":30.2991,"la2":30.254,"lo1":-89.0895,"lo2":-89.0444,"dy":0.0017,"dx":0.0017,"nx":28,"ny":28,"refTime":"2023-08-17T09:00:00:Z","depth":"2","parameterNumber":2,"parameterNumberName":"U-component_of_CURRENTS"},"data":[0,0,0,0,0,0,0,0,0,0,0,0,0,0,0,0,0,0,0,0,0,0,0,0,0,0,0,0,0,0,0,0,0,0,0,0,0,0,0,0,0,0,0,0,0,0,0,0,0,0,0,0,0,0,0,0,0,0,-0.222,-0.2219,0,-0.2182,-0.2182,-0.2182,-0.2237,-0.2239,-0.2241,-0.2243,-0.2233,-0.2231,-0.223,0,0,0,0,0,0,0,0,0,0,0,0,0,-0.2062,-0.2067,-0.222,-0.2219,-0.2219,-0.2182,-0.2182,-0.2182,-0.2237,-0.2239,-0.2242,-0.2244,-0.2234,-0.2232,-0.2229,0,0,0,0,0,0,0,0,0,0,0,0,0,-0.2089,-0.2068,-0.222,-0.2242,-0.2243,-0.2183,-0.2182,-0.2181,-0.2236,-0.2239,-0.2242,-0.2245,-0.2235,-0.2232,-0.2229,-0.2153,0,0,-0.222,-0.2218,0,0,0,0,0,0,0,0,-0.2088,-0.2096,-0.2239,-0.224,-0.2242,-0.2217,-0.2123,-0.2173,-0.2236,-0.224,-0.2243,-0.2246,-0.2228,-0.2226,-0.2213,-0.2153,-0.2153,-0.2219,-0.2218,-0.2216,-0.2216,0,0,0,0,0,0,0,-0.2087,-0.2096,-0.2206,-0.2238,-0.224,-0.2158,-0.2168,-0.2131,-0.2219,-0.2239,-0.2243,-0.2237,-0.2229,-0.2216,-0.2213,-0.2153,-0.222,-0.2217,-0.2215,-0.2214,-0.21,-0.2099,0,0,0,0,0,0,-0.2102,-0.2096,-0.2207,-0.2204,-0.2169,-0.216,-0.217,-0.2222,-0.2219,-0.2221,-0.2235,-0.224,-0.2219,-0.2217,-0.2213,-0.2224,-0.2216,-0.2214,-0.2212,-0.2101,-0.2099,-0.2098,0,0,0,0,0,0,-0.21,-0.2115,-0.2208,-0.2144,-0.2151,-0.2162,-0.2218,-0.222,-0.2228,-0.2215,-0.2219,-0.2243,-0.2221,-0.2217,-0.2201,-0.222,-0.2212,-0.2209,-0.2102,-0.21,-0.2099,-0.218,0,0,0,0,0,0,-0.2097,-0.2116,-0.2158,-0.2148,-0.2155,-0.2196,-0.2215,-0.2217,-0.2218,-0.2225,-0.2222,-0.2223,-0.2223,-0.2205,-0.2198,-0.2216,-0.2207,-0.2104,-0.2102,-0.2099,-0.2179,-0.2182,-0.2184,0,0,0,0,0,-0.2092,-0.2141,-0.2162,-0.2174,-0.2217,-0.2195,-0.2192,-0.2205,-0.2216,-0.2221,-0.2217,-0.2224,-0.2186,-0.2202,-0.2193,-0.2211,-0.2105,-0.2102,-0.21,-0.2178,-0.2181,-0.2183,0,0,0,0,0,0,-0.2144,-0.2151,-0.2174,-0.2242,-0.2229,-0.2206,-0.2203,-0.2204,-0.22,-0.2209,-0.2205,-0.2204,-0.2202,-0.2172,-0.219,-0.2165,-0.2146,-0.2142,-0.2209,-0.2211,-0.2213,-0.2212,-0.2205,0,0,0,0,0,-0.2163,-0.2177,-0.2185,-0.2235,-0.2227,-0.2212,-0.2204,-0.221,-0.22,-0.2203,-0.2201,-0.2186,-0.2174,-0.217,-0.2151,-0.2124,-0.2089,-0.2125,-0.2128,-0.213,-0.2119,-0.2067,-0.2065,-0.2089,-0.2089,-0.2089,0,0,-0.2193,-0.22,-0.2212,-0.2239,-0.2225,-0.2213,-0.2216,-0.2206,-0.2212,-0.2196,-0.2205,-0.2195,-0.2166,-0.216,-0.2154,-0.2146,-0.2109,-0.2127,-0.213,-0.2116,-0.2064,-0.2062,-0.206,-0.2087,-0.2088,-0.2088,0,0,-0.2211,-0.2268,-0.2259,-0.2246,-0.2226,-0.2218,-0.2218,-0.2202,-0.2218,-0.2209,-0.2208,-0.22,-0.2177,-0.2167,-0.2157,-0.2141,-0.2124,-0.2141,-0.2154,-0.2106,-0.2104,-0.2102,-0.2084,-0.2079,-0.2141,-0.2141,-0.2141,0,-0.2234,-0.2265,-0.2254,-0.2237,-0.2228,-0.2223,-0.2213,-0.2216,-0.2205,-0.2203,-0.2227,-0.2182,-0.2179,-0.2152,-0.2171,-0.2151,-0.2127,-0.2162,-0.2113,-0.2109,-0.2106,-0.2087,-0.2081,-0.2144,-0.2144,-0.2144,-0.2143,0,-0.2235,-0.2257,-0.2248,-0.223,-0.2222,-0.2212,-0.2211,-0.2217,-0.2232,-0.2227,-0.2219,-0.2207,-0.2179,-0.2185,-0.2187,-0.2158,-0.2153,-0.213,-0.2119,-0.2109,-0.2089,-0.2082,-0.2149,-0.2148,-0.2147,-0.2146,0,0,-0.2256,-0.2247,-0.2242,-0.2233,-0.2219,-0.2206,-0.2219,-0.2214,-0.2216,-0.222,-0.2217,-0.2211,-0.2202,-0.2185,-0.2178,-0.215,-0.214,-0.2144,-0.214,-0.2148,-0.2055,-0.2014,-0.2002,-0.2116,-0.2114,-0.2113,-0.2063,0,-0.2246,-0.2233,-0.223,-0.2213,-0.22,-0.2202,-0.221,-0.2208,-0.222,-0.2219,-0.2206,-0.2199,-0.2203,-0.2205,-0.2176,-0.2147,-0.2118,-0.2156,-0.2041,-0.2038,-0.202,-0.199,-0.1797,-0.1731,-0.2055,-0.2054,-0.2053,0,-0.2228,-0.222,-0.2214,-0.2201,-0.2196,-0.2187,-0.219,-0.2197,-0.2195,-0.221,-0.2193,-0.219,-0.2166,-0.2171,-0.2098,-0.2126,-0.2095,-0.2068,-0.2065,-0.1985,-0.198,-0.1782,-0.1705,-0.204,-0.2041,-0.2042,-0.2043,0,-0.2216,-0.2201,-0.2203,-0.2196,-0.2186,-0.2181,-0.2179,-0.2181,-0.2184,-0.2194,-0.2195,-0.2166,-0.2148,-0.2102,-0.207,-0.2086,-0.1985,-0.1991,-0.1914,-0.1912,-0.17,-0.1682,-0.1915,-0.1915,-0.1915,-0.1915,-0.1915,0,-0.2198,-0.2184,-0.2194,-0.2181,-0.2163,-0.2166,-0.2149,-0.2158,-0.2164,-0.2157,-0.2176,-0.216,-0.2129,-0.2081,-0.2055,-0.1959,-0.1962,-0.1902,-0.1882,-0.1725,-0.1711,-0.1932,-0.1934,-0.1913,-0.1914,-0.1914,-0.1915,0,-0.2166,-0.2183,-0.2163,-0.216,-0.2148,-0.2133,-0.2113,-0.2108,-0.213,-0.2125,-0.2132,-0.2133,-0.2084,-0.2043,-0.1967,-0.192,-0.1851,-0.1812,-0.1652,-0.1614,-0.1823,-0.1831,-0.1726,-0.1724,-0.1722,-0.1721,-0.1719,0,-0.2155,-0.2146,-0.2135,-0.2117,-0.2103,-0.2081,-0.2064,-0.208,-0.2083,-0.2102,-0.2097,-0.2066,-0.2043,-0.1919,-0.1816,-0.1731,-0.1786,-0.1501,-0.1487,-0.1806,-0.1797,-0.1807,-0.1817,-0.1249,-0.1244,-0.124,-0.1237,0,-0.2103,-0.2106,-0.2091,-0.2069,-0.2042,-0.2029,-0.2013,-0.2023,-0.2059,-0.2045,-0.2058,-0.2048,-0.1927,-0.1732,-0.16,-0.1526,-0.1507,-0.1417,-0.1734,-0.1344,-0.1355,-0.1348,-0.1372,-0.12,-0.1203,-0.1206,-0.1208,-0.121,-0.2054,-0.2038,-0.2029,-0.1998,-0.1987,-0.2,-0.1966,-0.1957,-0.1952,-0.1869,-0.1937,-0.181,-0.1668,-0.1398,-0.1294,-0.1205,-0.132,-0.1202,-0.1214,-0.123,-0.1201,-0.1209,-0.1023,-0.1025,-0.1028,-0.103,-0.1031,0,-0.1977,-0.1966,-0.1952,-0.1929,-0.1913,-0.1922,-0.1933,-0.1827,-0.1767,-0.171,-0.1625,-0.1343,-0.1178,-0.1105,-0.0918,-0.0864,-0.086,-0.0805,-0.0771,-0.0805,-0.0836,-0.0788,-0.05,-0.0499,-0.0498,-0.0498,0,0,-0.193,-0.1892,-0.1894,-0.1851,-0.1837,-0.1776,-0.1771,-0.1579,-0.1496,-0.1268,-0.1164,-0.1092,-0.1108,-0.0817,-0.0694,-0.0601,-0.0728,-0.0568,-0.0979,-0.0977,-0.1009,-0.1026,-0.0985,0,0,0,0,0]},{"header":{"parameterUnit":"m.s-1","parameterCategory":2,"la1":30.2991,"la2":30.254,"lo1":-89.0895,"lo2":-89.0444,"dy":0.0017,"dx":0.0017,"nx":28,"ny":28,"refTime":"2023-08-17T09:00:00:Z","depth":"2","parameterNumber":3,"parameterNumberName":"V-component_of_CURRENTS"},"data":[0,0,0,0,0,0,0,0,0,0,0,0,0,0,0,0,0,0,0,0,0,0,0,0,0,0,0,0,0,0,0,0,0,0,0,0,0,0,0,0,0,0,0,0,0,0,0,0,0,0,0,0,0,0,0,0,0,0,-0.0376,-0.0375,0,-0.0242,-0.024,-0.0239,-0.0168,-0.0168,-0.0168,-0.0169,-0.0032,-0.0029,-0.0025,0,0,0,0,0,0,0,0,0,0,0,0,0,-0.0496,-0.0494,-0.0376,-0.0375,-0.0374,-0.0242,-0.024,-0.0238,-0.0168,-0.0168,-0.0169,-0.0169,-0.0034,-0.0029,-0.0025,0,0,0,0,0,0,0,0,0,0,0,0,0,-0.0408,-0.0494,-0.0377,-0.0325,-0.0319,-0.0243,-0.024,-0.0238,-0.0168,-0.0168,-0.0169,-0.0169,-0.0035,-0.003,-0.0024,0.0017,0,0,-0.0007,-0.0004,0,0,0,0,0,0,0,0,-0.0413,-0.0403,-0.0334,-0.0329,-0.0322,-0.0225,-0.0232,-0.0153,-0.0168,-0.0222,-0.0169,-0.0169,-0.0099,-0.0088,-0.0057,0.0023,0.0029,-0.0006,-0.0003,-0.0,0.0001,0,0,0,0,0,0,0,-0.042,-0.0408,-0.032,-0.0333,-0.0325,-0.0283,-0.0271,-0.0217,-0.0158,-0.0217,-0.0213,-0.0203,-0.0095,-0.0063,-0.0054,0.0031,-0.0006,-0.0001,0.0002,0.0005,0.0154,0.0155,0,0,0,0,0,0,-0.0446,-0.0414,-0.0324,-0.0316,-0.0373,-0.0281,-0.0268,-0.0253,-0.0158,-0.0145,-0.0203,-0.02,-0.0072,-0.006,-0.0049,-0.0006,-0.0,0.0005,0.0008,0.0154,0.0154,0.0155,0,0,0,0,0,0,-0.0449,-0.0439,-0.033,-0.0365,-0.0349,-0.028,-0.0263,-0.0251,-0.0223,-0.0148,-0.0134,-0.019,-0.0072,-0.0057,-0.0003,0.0,0.0008,0.0013,0.0153,0.0154,0.0154,0.0087,0,0,0,0,0,0,-0.0453,-0.0441,-0.0437,-0.0367,-0.0348,-0.03,-0.0263,-0.0248,-0.0218,-0.0213,-0.0132,-0.012,-0.0071,-0.0012,0.0003,0.0008,0.0017,0.0152,0.0153,0.0154,0.0089,0.0086,0.0083,0,0,0,0,0,-0.0457,-0.0456,-0.0438,-0.0427,-0.0346,-0.0301,-0.0287,-0.0236,-0.0218,-0.0211,-0.0151,-0.0122,0.0005,-0.0007,0.001,0.0017,0.0152,0.0153,0.0154,0.009,0.0086,0.0083,0,0,0,0,0,0,-0.0497,-0.0447,-0.0426,-0.0406,-0.0365,-0.029,-0.0278,-0.0243,-0.0188,-0.0183,-0.0112,-0.0095,-0.0049,-0.0004,-0.0018,0.0065,0.0082,0.0087,0.0028,0.0025,0.0022,0.0004,0.0022,0,0,0,0,0,-0.0508,-0.0499,-0.0441,-0.0426,-0.0411,-0.0346,-0.0321,-0.0286,-0.023,-0.0206,-0.0145,-0.0081,-0.0027,0.0005,0.0059,0.0108,0.013,0.0124,0.0121,0.0118,0.0116,0.0145,0.0144,0.0159,0.0159,0.0159,0,0,-0.0518,-0.0491,-0.0483,-0.0435,-0.0398,-0.038,-0.0331,-0.03,-0.0277,-0.02,-0.0148,-0.0091,-0.0018,0.0034,0.0059,0.0071,0.0126,0.012,0.0116,0.0116,0.0146,0.0144,0.0143,0.016,0.016,0.0159,0,0,-0.0541,-0.0513,-0.0516,-0.0491,-0.0448,-0.0407,-0.0406,-0.0334,-0.0298,-0.0239,-0.0183,-0.013,-0.0033,0.0014,0.0051,0.0065,0.0104,0.0089,0.0068,0.0095,0.0094,0.0092,0.011,0.0111,0.0093,0.0093,0.0093,0,-0.0556,-0.0542,-0.0509,-0.0507,-0.0488,-0.0429,-0.0422,-0.0378,-0.0294,-0.0265,-0.0236,-0.0103,-0.0045,0.0011,0.0025,0.0056,0.0079,0.007,0.0088,0.0088,0.0088,0.0107,0.0108,0.009,0.009,0.0091,0.0091,0,-0.0579,-0.0568,-0.057,-0.0549,-0.053,-0.0511,-0.0458,-0.0428,-0.0373,-0.0318,-0.0247,-0.0159,-0.0082,-0.0052,-0.0001,0.0034,0.0052,0.0072,0.0088,0.0082,0.0103,0.0106,0.0086,0.0087,0.0088,0.0088,0,0,-0.06,-0.0587,-0.0585,-0.0576,-0.0545,-0.0523,-0.0508,-0.0458,-0.0432,-0.0352,-0.031,-0.0208,-0.0155,-0.011,-0.0044,-0.0006,0.0017,0.0039,0.0042,0.004,0.0075,0.0121,0.0129,0.0043,0.0043,0.0044,0.0085,0,-0.0618,-0.0619,-0.0612,-0.0605,-0.0593,-0.0561,-0.0544,-0.0501,-0.0442,-0.0389,-0.0309,-0.0237,-0.0179,-0.0131,-0.009,0.0001,0.0025,0.0004,0.0097,0.0099,0.0128,0.0135,0.0117,0.0156,0.0089,0.0089,0.009,0,-0.0633,-0.0628,-0.0629,-0.0611,-0.0605,-0.0602,-0.0564,-0.0541,-0.0481,-0.0433,-0.0373,-0.0299,-0.0222,-0.0175,-0.0058,-0.007,-0.0007,0.0052,0.0055,0.0125,0.0152,0.0157,0.0165,0.0095,0.0095,0.0095,0.0094,0,-0.0637,-0.0633,-0.0629,-0.0625,-0.0606,-0.0607,-0.0595,-0.0553,-0.0519,-0.0464,-0.0418,-0.0339,-0.0262,-0.0192,-0.0062,-0.0054,0.0055,0.0075,0.0163,0.0166,0.0184,0.0188,0.0131,0.0131,0.013,0.013,0.013,0,-0.0644,-0.064,-0.0631,-0.0628,-0.0623,-0.0615,-0.0601,-0.0581,-0.0541,-0.0491,-0.0435,-0.036,-0.0255,-0.0169,-0.0087,0.0053,0.003,0.0161,0.0185,0.0161,0.0163,0.014,0.0141,0.0132,0.0132,0.0131,0.0131,0,-0.0652,-0.0644,-0.0639,-0.0628,-0.0625,-0.0625,-0.0611,-0.0596,-0.0555,-0.0494,-0.0471,-0.0361,-0.0242,-0.0158,-0.0027,0.0051,0.0151,0.0194,0.0156,0.0176,0.0245,0.0242,0.0303,0.0305,0.0306,0.0308,0.0309,0,-0.0663,-0.0659,-0.0643,-0.0643,-0.0644,-0.064,-0.0638,-0.0609,-0.0582,-0.0471,-0.0433,-0.0312,-0.0206,-0.0026,0.0102,0.0216,0.0197,0.0275,0.0293,0.0248,0.0265,0.0259,0.0254,0.028,0.0281,0.0282,0.0282,0,-0.0685,-0.0674,-0.0669,-0.0664,-0.0665,-0.0661,-0.0648,-0.0629,-0.0571,-0.0525,-0.0418,-0.033,-0.0105,0.0041,0.0194,0.0263,0.0253,0.0298,0.0258,0.0248,0.0233,0.0248,0.0242,0.0289,0.0288,0.0288,0.0287,0.0287,-0.0707,-0.0707,-0.0696,-0.0698,-0.0696,-0.0695,-0.0709,-0.0688,-0.0666,-0.0599,-0.0458,-0.032,-0.013,0.0102,0.0225,0.035,0.0364,0.0378,0.0373,0.0368,0.0366,0.0356,0.0434,0.0434,0.0434,0.0434,0.0434,0,-0.0744,-0.0735,-0.0734,-0.0737,-0.0759,-0.0739,-0.0728,-0.0754,-0.0767,-0.0629,-0.0556,-0.0345,-0.0139,0.0067,0.0301,0.0434,0.0407,0.0427,0.0362,0.0356,0.035,0.0345,0.0409,0.0409,0.0409,0.0409,0,0,-0.0762,-0.0772,-0.0769,-0.081,-0.0815,-0.0856,-0.0869,-0.0893,-0.0822,-0.0743,-0.0603,-0.0442,-0.0115,0.0005,0.0168,0.0308,0.0286,0.0309,0.0319,0.0217,0.0209,0.0319,0.0305,0,0,0,0,0]}],[{"header":{"parameterUnit":"m.s-1","parameterCategory":2,"la1":30.2991,"la2":30.254,"lo1":-89.0895,"lo2":-89.0444,"dy":0.0017,"dx":0.0017,"nx":28,"ny":28,"refTime":"2023-08-17T09:00:00:Z","depth":"4","parameterNumber":2,"parameterNumberName":"U-component_of_CURRENTS"},"data":[0,0,0,0,0,0,0,0,0,0,0,0,0,0,0,0,0,0,0,0,0,0,0,0,0,0,0,0,0,0,0,0,0,0,0,0,0,0,0,0,0,0,0,0,0,0,0,0,0,0,0,0,0,0,0,0,0,0,-0.0848,-0.0847,0,-0.082,-0.082,-0.082,-0.081,-0.081,-0.081,-0.081,-0.0873,-0.0874,-0.0876,0,0,0,0,0,0,0,0,0,0,0,0,0,-0.0938,-0.0936,-0.0848,-0.0847,-0.0847,-0.082,-0.082,-0.0819,-0.081,-0.081,-0.081,-0.081,-0.0872,-0.0874,-0.0876,0,0,0,0,0,0,0,0,0,0,0,0,0,-0.0903,-0.0935,-0.0848,-0.0839,-0.0838,-0.082,-0.082,-0.0819,-0.081,-0.081,-0.081,-0.081,-0.0871,-0.0874,-0.0876,-0.0888,0,0,-0.0883,-0.0884,0,0,0,0,0,0,0,0,-0.0905,-0.09,-0.0841,-0.084,-0.0838,-0.0819,-0.0874,-0.0847,-0.081,-0.0821,-0.081,-0.081,-0.0863,-0.0866,-0.0859,-0.0891,-0.0893,-0.0883,-0.0885,-0.0886,-0.0887,0,0,0,0,0,0,0,-0.0908,-0.0901,-0.0837,-0.084,-0.0839,-0.0852,-0.0847,-0.0869,-0.0843,-0.082,-0.0819,-0.0816,-0.0863,-0.0857,-0.0861,-0.0894,-0.0883,-0.0885,-0.0887,-0.0888,-0.1008,-0.101,0,0,0,0,0,0,-0.0908,-0.0903,-0.0838,-0.0836,-0.0873,-0.085,-0.0844,-0.0825,-0.0841,-0.0843,-0.0816,-0.0815,-0.0853,-0.0858,-0.0863,-0.0919,-0.0886,-0.0888,-0.0889,-0.1006,-0.1009,-0.101,0,0,0,0,0,0,-0.0909,-0.0901,-0.0839,-0.087,-0.0863,-0.0848,-0.0827,-0.0824,-0.083,-0.0837,-0.084,-0.0826,-0.0853,-0.086,-0.0888,-0.092,-0.0889,-0.0891,-0.1004,-0.1007,-0.101,-0.1005,0,0,0,0,0,0,-0.0912,-0.0902,-0.0896,-0.0869,-0.0861,-0.0836,-0.0826,-0.0824,-0.0827,-0.0827,-0.0846,-0.0851,-0.0854,-0.0885,-0.0891,-0.0922,-0.0893,-0.1002,-0.1006,-0.1009,-0.1003,-0.1007,-0.101,0,0,0,0,0,-0.0915,-0.0902,-0.0895,-0.0888,-0.085,-0.0836,-0.0834,-0.0824,-0.0828,-0.0831,-0.0843,-0.0851,-0.0912,-0.0887,-0.0894,-0.0927,-0.1,-0.1005,-0.1008,-0.1001,-0.1006,-0.101,0,0,0,0,0,0,-0.0932,-0.0899,-0.0891,-0.0867,-0.0857,-0.0835,-0.0837,-0.0834,-0.0844,-0.0849,-0.0859,-0.0865,-0.0908,-0.0921,-0.0895,-0.0976,-0.0964,-0.097,-0.0956,-0.0961,-0.0965,-0.0966,-0.0895,0,0,0,0,0,-0.0934,-0.092,-0.0893,-0.0877,-0.0873,-0.086,-0.0857,-0.085,-0.0851,-0.0854,-0.0866,-0.0894,-0.0929,-0.0945,-0.0972,-0.1006,-0.1012,-0.104,-0.1044,-0.1047,-0.1056,-0.1095,-0.1102,-0.1024,-0.1024,-0.1024,0,0,-0.0937,-0.0918,-0.091,-0.0882,-0.0874,-0.0869,-0.0859,-0.0855,-0.0863,-0.0863,-0.0885,-0.0907,-0.0942,-0.0979,-0.1002,-0.0993,-0.1068,-0.1052,-0.1054,-0.1061,-0.11,-0.1107,-0.1114,-0.1026,-0.1026,-0.1025,0,0,-0.0936,-0.092,-0.0909,-0.0903,-0.0891,-0.0885,-0.0889,-0.0874,-0.0883,-0.0908,-0.0914,-0.0943,-0.0997,-0.101,-0.1032,-0.1077,-0.1089,-0.1108,-0.1124,-0.1161,-0.1167,-0.1173,-0.116,-0.1165,-0.1107,-0.1107,-0.1107,0,-0.0945,-0.0919,-0.0908,-0.0899,-0.0897,-0.0896,-0.0891,-0.0901,-0.0901,-0.0914,-0.0924,-0.0992,-0.1012,-0.1054,-0.1075,-0.1084,-0.1099,-0.1095,-0.1164,-0.117,-0.1175,-0.1161,-0.1166,-0.1107,-0.1107,-0.1107,-0.1107,0,-0.0931,-0.0921,-0.0918,-0.0906,-0.0906,-0.0904,-0.091,-0.0921,-0.0943,-0.0954,-0.1005,-0.1026,-0.1067,-0.1086,-0.11,-0.1156,-0.1148,-0.1161,-0.1142,-0.1183,-0.1165,-0.117,-0.1108,-0.1108,-0.1108,-0.1108,0,0,-0.0921,-0.0909,-0.091,-0.0908,-0.091,-0.0905,-0.0929,-0.0944,-0.0966,-0.0996,-0.1026,-0.1087,-0.1102,-0.1128,-0.1142,-0.1176,-0.1214,-0.1195,-0.1197,-0.1165,-0.1274,-0.1144,-0.1136,-0.125,-0.1252,-0.1253,-0.1233,0,-0.0916,-0.0901,-0.09,-0.0903,-0.0896,-0.0909,-0.093,-0.0951,-0.0987,-0.1017,-0.1058,-0.1102,-0.112,-0.1143,-0.1182,-0.1209,-0.1235,-0.1216,-0.1256,-0.1256,-0.1122,-0.1141,-0.1259,-0.1237,-0.1238,-0.1239,-0.1239,0,-0.0897,-0.0891,-0.0884,-0.0894,-0.0894,-0.0904,-0.0934,-0.0951,-0.1,-0.1033,-0.1082,-0.1119,-0.1163,-0.1184,-0.1244,-0.1238,-0.1268,-0.1284,-0.1284,-0.1172,-0.1137,-0.12,-0.1249,-0.1248,-0.1247,-0.1247,-0.1246,0,-0.0881,-0.0881,-0.0878,-0.0879,-0.089,-0.0902,-0.0916,-0.0957,-0.0977,-0.1043,-0.107,-0.1134,-0.116,-0.1221,-0.1251,-0.1269,-0.1305,-0.1325,-0.1227,-0.1216,-0.134,-0.1335,-0.1386,-0.1386,-0.1386,-0.1386,-0.1386,0,-0.0859,-0.0862,-0.0873,-0.0869,-0.0875,-0.0891,-0.0916,-0.094,-0.0984,-0.1005,-0.1076,-0.1099,-0.1185,-0.121,-0.1251,-0.1226,-0.1301,-0.1225,-0.121,-0.1334,-0.1329,-0.1341,-0.1336,-0.1385,-0.1385,-0.1386,-0.1386,0,-0.0831,-0.084,-0.0837,-0.0854,-0.0862,-0.0865,-0.0899,-0.0914,-0.0964,-0.0991,-0.1014,-0.1079,-0.1102,-0.1144,-0.1212,-0.1193,-0.1203,-0.1183,-0.1269,-0.1259,-0.1089,-0.1085,-0.1072,-0.1068,-0.1064,-0.1061,-0.1058,0,-0.0809,-0.0804,-0.0818,-0.0816,-0.0825,-0.0841,-0.0847,-0.0895,-0.0908,-0.0967,-0.0965,-0.1008,-0.1044,-0.1009,-0.1073,-0.1086,-0.1098,-0.1081,-0.1133,-0.1075,-0.1062,-0.1064,-0.1064,-0.1052,-0.1051,-0.105,-0.1049,0,-0.0769,-0.0782,-0.0777,-0.0772,-0.0777,-0.0777,-0.0792,-0.0796,-0.0844,-0.0904,-0.0904,-0.0918,-0.0919,-0.0946,-0.0938,-0.0968,-0.108,-0.1042,-0.1051,-0.11,-0.105,-0.1041,-0.1046,-0.1035,-0.1037,-0.1038,-0.1039,0,-0.0743,-0.0729,-0.0726,-0.0715,-0.0716,-0.0694,-0.0718,-0.0723,-0.074,-0.0809,-0.0807,-0.0853,-0.0907,-0.0882,-0.0888,-0.0876,-0.0892,-0.0892,-0.091,-0.0926,-0.0887,-0.0803,-0.0695,0,0,0,0,0,-0.0709,-0.0683,-0.0667,-0.0637,-0.0636,-0.0632,-0.0664,-0.0693,-0.075,-0.0725,-0.0764,-0.0767,-0.0767,-0.0793,-0.0754,-0.082,-0.0889,-0.0771,-0.0897,-0.096,-0.0976,-0.0944,0,0,0,0,0,0,-0.068,-0.0668,-0.0645,-0.0574,-0.0539,-0.0523,-0.0539,-0.058,-0.0574,-0.0646,-0.0652,-0.0708,-0.0719,-0.077,-0.0733,-0.0738,-0.08,-0.0802,-0.0799,-0.0951,-0.0966,-0.0978,-0.095,0,0,0,0,0]},{"header":{"parameterUnit":"m.s-1","parameterCategory":2,"la1":30.2991,"la2":30.254,"lo1":-89.0895,"lo2":-89.0444,"dy":0.0017,"dx":0.0017,"nx":28,"ny":28,"refTime":"2023-08-17T09:00:00:Z","depth":"4","parameterNumber":3,"parameterNumberName":"V-component_of_CURRENTS"},"data":[0,0,0,0,0,0,0,0,0,0,0,0,0,0,0,0,0,0,0,0,0,0,0,0,0,0,0,0,0,0,0,0,0,0,0,0,0,0,0,0,0,0,0,0,0,0,0,0,0,0,0,0,0,0,0,0,0,0,-0.0467,-0.0467,0,-0.0451,-0.0451,-0.0451,-0.0399,-0.0398,-0.0397,-0.0396,-0.0336,-0.0336,-0.0335,0,0,0,0,0,0,0,0,0,0,0,0,0,-0.0445,-0.0446,-0.0467,-0.0467,-0.0467,-0.0451,-0.0451,-0.0451,-0.0399,-0.0398,-0.0396,-0.0395,-0.0336,-0.0336,-0.0335,0,0,0,0,0,0,0,0,0,0,0,0,0,-0.0444,-0.0446,-0.0467,-0.044,-0.0437,-0.0451,-0.0451,-0.0451,-0.0399,-0.0398,-0.0396,-0.0394,-0.0336,-0.0336,-0.0335,-0.0364,0,0,-0.0332,-0.0332,0,0,0,0,0,0,0,0,-0.0445,-0.0445,-0.0444,-0.0442,-0.0439,-0.0426,-0.0422,-0.042,-0.04,-0.0413,-0.0396,-0.0394,-0.0364,-0.0361,-0.0361,-0.0361,-0.0358,-0.0332,-0.0332,-0.0332,-0.0331,0,0,0,0,0,0,0,-0.0445,-0.0446,-0.0461,-0.0444,-0.0441,-0.0425,-0.0423,-0.0421,-0.0397,-0.0412,-0.0408,-0.0408,-0.0362,-0.0362,-0.0359,-0.0357,-0.0332,-0.0332,-0.0331,-0.0331,-0.0369,-0.0371,0,0,0,0,0,0,-0.045,-0.0446,-0.0461,-0.046,-0.0438,-0.0427,-0.0425,-0.0431,-0.0398,-0.0392,-0.0409,-0.0405,-0.0364,-0.036,-0.0357,-0.0388,-0.0332,-0.0331,-0.033,-0.0368,-0.037,-0.0371,0,0,0,0,0,0,-0.045,-0.0452,-0.0462,-0.0452,-0.0452,-0.0429,-0.0437,-0.0432,-0.0434,-0.0396,-0.0389,-0.0416,-0.0363,-0.0358,-0.0362,-0.0385,-0.033,-0.033,-0.0366,-0.0368,-0.037,-0.045,0,0,0,0,0,0,-0.0449,-0.0452,-0.0466,-0.0453,-0.0453,-0.0478,-0.0438,-0.0433,-0.0436,-0.0431,-0.04,-0.0392,-0.0361,-0.0364,-0.0361,-0.0383,-0.0329,-0.0364,-0.0367,-0.037,-0.0445,-0.0454,-0.0462,0,0,0,0,0,-0.0449,-0.0468,-0.0467,-0.0469,-0.0471,-0.0479,-0.0479,-0.0455,-0.0438,-0.0449,-0.0427,-0.0393,-0.0379,-0.0365,-0.0361,-0.0383,-0.0363,-0.0366,-0.0369,-0.0441,-0.0453,-0.0462,0,0,0,0,0,0,-0.0465,-0.0464,-0.0463,-0.0481,-0.0486,-0.0471,-0.048,-0.0468,-0.0462,-0.0456,-0.0416,-0.0408,-0.042,-0.0397,-0.0381,-0.0403,-0.0365,-0.0368,-0.0421,-0.0431,-0.0439,-0.0426,-0.0328,0,0,0,0,0,-0.0479,-0.0494,-0.0491,-0.0511,-0.0514,-0.0503,-0.0506,-0.0494,-0.0484,-0.0479,-0.046,-0.0441,-0.0435,-0.0428,-0.0419,-0.0436,-0.0395,-0.0447,-0.0456,-0.0463,-0.0451,-0.0416,-0.0419,-0.0382,-0.0382,-0.0382,0,0,-0.049,-0.0494,-0.0502,-0.0516,-0.0516,-0.0528,-0.0501,-0.0512,-0.052,-0.0476,-0.0485,-0.0475,-0.0447,-0.0461,-0.0464,-0.0442,-0.0457,-0.0467,-0.0474,-0.0457,-0.042,-0.0423,-0.0426,-0.0385,-0.0384,-0.0384,0,0,-0.0511,-0.0527,-0.054,-0.055,-0.0559,-0.0557,-0.0565,-0.0562,-0.0559,-0.0576,-0.0544,-0.0547,-0.0541,-0.0523,-0.0513,-0.0567,-0.0507,-0.0568,-0.0596,-0.0563,-0.0565,-0.0566,-0.0535,-0.0533,-0.0569,-0.0569,-0.0569,0,-0.0524,-0.0542,-0.0547,-0.0562,-0.0572,-0.0572,-0.0588,-0.0593,-0.0593,-0.0596,-0.0588,-0.0583,-0.0568,-0.0569,-0.0586,-0.0585,-0.0551,-0.0559,-0.0572,-0.0572,-0.0572,-0.054,-0.0536,-0.0573,-0.0573,-0.0572,-0.0572,0,-0.0544,-0.0566,-0.0578,-0.0597,-0.0613,-0.0633,-0.0639,-0.0657,-0.0661,-0.0659,-0.0674,-0.066,-0.0649,-0.0657,-0.0636,-0.0636,-0.0609,-0.059,-0.0542,-0.058,-0.0545,-0.0539,-0.0579,-0.0578,-0.0576,-0.0575,0,0,-0.0547,-0.0584,-0.0589,-0.0607,-0.0635,-0.065,-0.0676,-0.0695,-0.0709,-0.0719,-0.073,-0.0734,-0.0723,-0.0711,-0.0692,-0.0667,-0.0653,-0.063,-0.0626,-0.0592,-0.0574,-0.0517,-0.0505,-0.063,-0.063,-0.0629,-0.0555,0,-0.056,-0.0595,-0.0609,-0.0651,-0.0672,-0.069,-0.0715,-0.0735,-0.075,-0.0765,-0.0756,-0.0763,-0.0744,-0.0746,-0.0721,-0.0673,-0.064,-0.0674,-0.0547,-0.0543,-0.0482,-0.0497,-0.0627,-0.0551,-0.055,-0.0549,-0.0548,0,-0.057,-0.0594,-0.0634,-0.0681,-0.0691,-0.0718,-0.0761,-0.0781,-0.08,-0.081,-0.0814,-0.0804,-0.079,-0.0763,-0.0687,-0.0707,-0.0642,-0.0598,-0.0594,-0.0501,-0.0475,-0.0501,-0.0538,-0.0538,-0.0539,-0.054,-0.0541,0,-0.0568,-0.0613,-0.0648,-0.0665,-0.0715,-0.074,-0.0765,-0.0796,-0.0816,-0.0836,-0.0849,-0.0829,-0.082,-0.0748,-0.0672,-0.0673,-0.0571,-0.0562,-0.0444,-0.044,-0.0477,-0.0476,-0.0483,-0.0483,-0.0483,-0.0483,-0.0484,0,-0.0575,-0.0607,-0.0653,-0.0676,-0.0724,-0.075,-0.0797,-0.082,-0.0846,-0.0867,-0.0867,-0.0865,-0.0811,-0.0755,-0.0676,-0.0546,-0.0571,-0.044,-0.0412,-0.0517,-0.0521,-0.0474,-0.0474,-0.0481,-0.0481,-0.0482,-0.0482,0,-0.0576,-0.0604,-0.0652,-0.0706,-0.0728,-0.0762,-0.082,-0.0848,-0.0869,-0.0894,-0.0901,-0.0887,-0.0805,-0.0735,-0.0619,-0.0544,-0.0433,-0.0373,-0.0495,-0.0477,-0.0323,-0.0328,-0.0236,-0.0233,-0.0231,-0.0229,-0.0227,0,-0.0583,-0.0605,-0.0674,-0.0705,-0.0736,-0.0787,-0.0824,-0.086,-0.0881,-0.0896,-0.0899,-0.0846,-0.0817,-0.0616,-0.054,-0.0381,-0.0346,-0.0298,-0.0302,-0.0313,-0.0295,-0.0304,-0.0312,-0.0224,-0.0223,-0.0223,-0.0222,0,-0.0594,-0.062,-0.0657,-0.0718,-0.0766,-0.0818,-0.0863,-0.0873,-0.0903,-0.0923,-0.0871,-0.079,-0.0689,-0.0572,-0.0449,-0.0336,-0.0344,-0.0273,-0.0277,-0.028,-0.0296,-0.0284,-0.0294,-0.0214,-0.0215,-0.0216,-0.0216,0,-0.0603,-0.0628,-0.0675,-0.0725,-0.0787,-0.083,-0.0855,-0.086,-0.0874,-0.0873,-0.0849,-0.0761,-0.0722,-0.0545,-0.0435,-0.032,-0.0281,-0.0246,-0.0251,-0.0259,-0.0287,-0.0312,-0.0201,0,0,0,0,0,-0.0606,-0.0628,-0.0677,-0.0733,-0.0794,-0.083,-0.0875,-0.0889,-0.0905,-0.0855,-0.0847,-0.0745,-0.0572,-0.0513,-0.0378,-0.0391,-0.0273,-0.023,-0.0239,-0.0169,-0.0178,-0.0202,0,0,0,0,0,0,-0.0608,-0.065,-0.0669,-0.0729,-0.0767,-0.0833,-0.0862,-0.0874,-0.0834,-0.0831,-0.0735,-0.0701,-0.0533,-0.0643,-0.0373,-0.0343,-0.0325,-0.0159,-0.0156,-0.0164,-0.0172,-0.018,-0.0207,0,0,0,0,0]}]]